User: anonymous
Location: Unspecified
(0.0000°N, 0.0000°E)
Time: 02:46:04
(UTC+02:00)
Language:

Hamsat - Orbit

View from above orbital plane
View from above orbital plane
View from above satellite
View from above satellite

Ground track
Ground track

The orbit data is extracted from the following two-line orbital elements,

1 28650U 05017B   14114.46538165  .00003317  00000-0  38997-3 0  7185
2 28650 097.5598 122.1237 0024323 338.8450 021.1758 14.85306429485259
Epoch (UTC): 24 April 2014 11:10:08
Eccentricity: 0.0024323
inclination: 97.5598°
perigee height: 595 km
apogee height: 629 km
right ascension of ascending node: 122.1237°
argument of perigee: 338.8450°
revolutions per day: 14.85306429
mean anomaly at epoch: 21.1758°
orbit number at epoch: 48525

The dashed part of the orbit path shows where the satellite is in the earth's shadow,  

DLR